Temp
30 33 33 34 33 33 32 32 32 34 34 34 35 34 35 33 31 31 31 30 30 31 32 30 28 27 27 25 24 23 24 23 23 23 21 20 21 20 20 20 20 19 19 19
31 32 32 31 31 32 32 32 33 34 33 33 35 34 35 35 33 33 32 31 31 31 31 30 28 27 26 26 24 21 21 21 20 22 22 22 21 20 21 20 20 19 19 20
33 33 31 31 32 32 33 33 33 33 33 33 33 34 35 36 33 33 33 32 31 31 31 30 29 27 27 24 20 21 23 22 23 22 20 20 20 21 20 20 20 21 20 20
32 32 32 32 32 32 33 34 33 34 33 34 32 34 33 34 34 34 33 32 31 31 30 31 29 27 25 19 21 24 26 26 25 22 23 20 20 21 22 21 21 20 20 20
32 31 30 31 33 32 34 32 32 32 32 32 32 33 36 31 34 35 34 33 32 31 31 30 31 27 20 23 22 24 26 25 24 22 22 21 19 20 21 21 20 20 20 20
33 31 32 34 33 32 31 32 30 29 32 33 32 33 36 36 35 35 32 31 31 31 30 30 28 25 21 20 23 24 26 29 27 24 20 20 19 20 21 21 21 20 20 20
31 32 32 32 33 31 32 32 32 32 33 33 29 31 35 35 32 30 30 30 31 30 30 29 27 26 21 20 20 21 23 27 25 23 21 19 20 20 21 22 22 21 21 21
31 31 32 32 33 34 32 33 33 31 32 34 28 32 35 32 29 28 27 29 31 30 28 28 27 26 21 19 21 19 22 24 26 25 20 21 19 20 21 22 22 22 22 21
30 31 31 31 33 34 31 32 31 30 26 32 32 32 34 33 31 28 28 27 28 28 26 26 26 24 23 20 19 20 23 23 22 23 20 20 20 20 20 22 22 21 21 21
31 31 32 32 32 30 33 31 32 31 30 31 32 31 34 34 33 29 28 28 26 26 26 26 25 23 23 23 22 20 21 20 20 20 20 20 20 19 20 20 21 21 20 19
30 31 32 31 33 33 31 32 29 31 30 33 32 33 33 32 31 29 28 27 27 26 27 26 26 23 24 22 21 20 20 20 19 19 19 19 20 20 19 20 19 19 19 19
30 32 31 33 31 30 32 32 32 33 30 29 31 34 30 29 28 28 28 27 27 26 26 25 24 25 24 23 21 21 20 19 20 20 20 19 19 19 19 19 19 19 19 18
28 30 31 32 31 30 32 30 30 28 29 29 32 34 28 27 26 26 27 27 26 26 26 24 24 24 24 23 21 20 19 20 20 20 20 19 19 19 19 19 19 19 19 19
27 26 30 33 33 32 31 30 29 31 32 30 32 33 31 28 27 28 26 26 26 26 26 25 23 23 23 22 22 21 20 20 20 20 20 20 20 20 19 19 19 19 19 18
27 29 28 28 29 30 31 31 29 30 31 33 33 32 28 26 25 26 27 26 25 26 27 24 23 23 23 23 22 22 21 20 20 20 20 20 19 19 19 19 19 18 18 18
25 27 27 29 29 31 29 29 30 29 29 30 30 30 26 25 25 26 26 26 26 26 27 25 24 22 23 23 22 20 20 20 19 20 20 19 19 19 19 19 19 18 18 18
26 27 28 29 27 30 30 26 28 26 24 24 30 26 24 24 24 24 25 25 26 26 26 26 25 23 23 23 21 20 20 19 19 19 19 19 19 19 19 19 19 19 18 18
26 24 25 28 28 28 25 25 26 24 23 23 23 23 23 23 23 23 22 24 25 26 26 26 26 24 22 22 21 21 20 18 18 19 19 19 19 19 19 19 19 18 18 18
23 25 25 27 28 25 25 25 25 26 25 22 22 23 23 23 24 25 23 22 23 25 26 25 25 23 21 21 21 19 19 19 18 19 19 19 19 19 19 19 19 19 18 18
22 22 27 25 27 26 25 23 22 23 26 22 22 22 22 24 29 25 23 21 21 20 21 23 23 22 20 20 19 19 18 18 18 19 19 19 19 19 19 19 19 19 18 19
23 23 25 25 25 24 23 21 21 25 25 21 21 21 19 22 21 21 22 22 21 19 18 21 22 22 22 20 19 19 19 19 19 20 21 19 19 19 19 19 19 18 18 19
23 24 24 22 24 24 20 22 23 20 20 20 20 20 19 20 21 22 22 22 23 22 22 21 22 23 21 20 20 21 20 20 19 20 20 19 20 19 19 19 18 18 18 18
22 22 22 22 22 20 20 19 18 18 19 19 19 19 19 20 21 21 21 22 22 22 21 21 21 21 20 20 20 21 21 20 19 19 19 20 20 19 20 20 19 17 18 18
20 19 22 21 21 21 20 19 19 18 18 19 19 19 19 19 19 19 19 20 20 21 21 20 20 20 21 19 19 20 20 20 19 19 18 19 20 19 20 21 19 18 18 18
21 20 21 21 21 20 20 19 19 19 19 19 19 19 19 18 18 17 17 18 18 19 19 18 18 18 18 17 18 18 18 18 19 19 19 18 18 19 19 18 17 17 17 17
21 21 23 23 21 21 20 19 18 19 19 19 19 19 18 17 17 18 17 17 17 18 19 19 19 18 17 16 17 17 17 18 18 17 17 17 17 17 17 16 16 17 17 16
Height
777 783 790 781 779 781 787 793 794 774 767 774 770 767 754 757 759 759 761 762 765 761 756 767 773 773 775 784 790 795 798 804 807 805 805 805 807 809 812 810 808 809 812 812
783 787 776 777 781 784 785 791 788 775 768 773 769 769 753 749 749 745 750 754 755 758 755 763 767 769 773 781 790 798 803 802 807 806 805 804 804 807 806 810 809 809 810 813
780 774 773 778 782 785 782 787 782 783 772 769 776 774 761 740 742 739 740 742 745 749 750 757 763 765 775 784 792 798 800 802 807 808 807 806 805 804 807 806 806 808 810 809
774 766 772 778 781 778 789 766 770 774 785 791 777 794 769 753 746 738 736 740 742 748 749 753 757 766 776 780 782 781 790 792 797 804 803 805 808 806 804 804 806 805 809 810
772 772 776 779 772 770 774 766 772 774 780 784 786 789 761 764 755 738 734 734 733 736 736 742 749 762 768 767 772 777 786 779 789 796 798 801 803 804 803 802 804 804 806 810
760 758 760 759 758 762 765 771 780 784 778 793 786 782 764 754 746 737 741 736 731 730 731 737 750 758 764 764 765 775 779 777 779 786 793 798 799 802 800 800 802 803 804 806
768 764 755 754 766 764 768 778 793 797 793 792 791 789 762 740 744 744 740 734 728 726 729 739 747 754 766 772 784 789 787 777 776 780 787 794 797 799 797 797 798 800 802 803
779 784 760 749 754 760 767 769 782 808 800 785 794 787 758 743 743 742 739 732 726 728 731 745 752 754 762 766 765 770 768 773 768 774 783 790 795 795 797 797 797 797 800 802
774 775 748 747 743 746 770 776 766 789 806 791 780 768 745 736 740 741 741 737 735 738 744 747 750 754 760 767 770 774 760 767 766 770 783 790 792 793 795 793 793 796 800 801
751 772 750 745 743 752 752 756 776 779 806 807 786 786 764 741 740 743 742 740 743 746 746 746 749 756 761 764 765 767 765 771 773 775 784 790 790 794 793 794 795 797 799 803
746 752 758 750 750 751 763 764 775 771 780 784 790 774 738 739 738 740 738 739 746 748 747 747 748 754 758 761 762 764 771 773 776 778 784 786 788 790 791 794 798 799 802 804
741 743 759 750 743 742 744 751 753 768 788 786 777 765 736 738 740 738 736 740 747 750 749 750 752 753 753 756 755 763 766 774 779 778 782 786 791 790 793 795 798 802 803 807
743 750 759 757 752 750 748 751 754 764 766 781 775 761 745 748 746 745 742 742 746 748 747 752 756 756 757 759 765 763 771 775 773 774 781 781 786 789 796 799 799 801 805 806
739 755 748 751 742 737 752 751 754 751 759 768 757 748 745 750 748 740 740 741 748 749 749 756 758 759 759 755 760 760 764 767 772 779 784 785 788 790 794 796 801 802 804 807
742 750 752 748 744 739 739 742 751 754 747 747 747 750 754 757 752 742 737 737 742 745 745 751 756 755 755 758 757 760 766 771 776 780 784 790 794 795 796 798 799 802 803 807
745 752 750 750 746 738 749 748 745 749 754 750 750 752 753 755 750 743 738 740 741 743 742 747 750 754 755 758 760 766 770 774 777 780 783 792 792 795 798 796 795 800 801 804
748 750 751 756 756 746 757 763 755 760 764 766 755 759 757 756 755 749 742 738 741 741 741 745 747 752 753 756 759 763 769 775 775 778 783 787 790 797 799 795 795 796 803 804
752 758 760 757 755 774 768 756 753 763 769 768 766 762 760 757 755 751 747 741 738 738 736 739 742 744 748 751 755 752 755 772 771 772 777 782 789 796 797 794 794 792 798 802
752 754 765 764 764 775 768 764 764 760 770 769 769 762 760 753 751 749 746 744 740 736 734 735 735 739 743 743 746 751 752 758 770 772 771 781 785 792 793 793 790 795 795 797
758 759 754 769 769 778 766 766 766 767 770 767 767 764 761 751 744 750 747 745 743 742 739 738 737 738 739 743 746 747 751 753 759 764 768 776 780 786 788 788 789 795 795 794
765 767 764 765 770 774 766 769 768 776 772 768 767 768 771 764 764 758 750 746 744 743 741 738 739 735 735 739 742 745 749 754 755 756 756 766 774 777 780 782 787 791 793 796
767 766 769 775 774 781 772 768 773 776 772 772 770 770 771 768 761 756 752 748 745 742 742 742 744 741 740 741 741 744 745 747 751 755 756 761 765 770 775 779 784 786 790 792
771 769 768 773 772 774 773 775 777 776 776 774 773 770 769 766 761 758 755 751 748 746 746 746 745 742 742 741 742 742 742 744 747 749 752 753 758 763 768 772 778 781 785 787
772 772 768 774 772 771 773 774 775 776 776 775 774 771 769 767 763 760 758 755 751 748 746 744 744 745 745 744 744 740 737 739 742 746 749 749 750 756 761 762 771 777 779 781
767 770 770 772 769 770 771 772 774 775 775 774 773 772 771 769 765 763 758 756 754 751 748 746 744 742 741 741 739 739 740 734 740 745 746 749 750 752 757 763 768 769 772 775
763 767 765 769 768 770 773 775 776 774 773 773 772 771 770 768 766 762 758 755 752 749 746 745 744 743 742 741 740 738 736 740 743 743 745 746 748 751 757 763 765 765 770 772
Wind_Speed
1 5 7 9 6 2 2 4 7 10 3 4 12 18 20 7 13 15 14 16 16 18 20 19 22 25 22 15 13 15 16 13 16 13 8 8 8 8 6 5 6 8 10 15
4 10 7 3 3 4 5 8 12 11 6 6 11 15 16 14 15 19 18 19 19 19 18 17 21 21 20 14 7 9 8 3 8 8 10 7 9 7 9 7 7 9 11 15
11 5 4 7 5 6 7 10 12 11 0 9 3 10 9 10 12 13 14 17 20 20 21 17 16 18 12 12 21 22 18 7 8 11 9 10 7 7 8 9 9 10 10 12
6 4 9 6 9 8 11 10 16 10 4 4 2 5 5 8 14 13 14 14 17 17 17 17 15 12 17 24 30 26 4 13 15 13 16 15 11 8 10 9 9 9 10 11
8 7 9 10 11 10 9 3 4 4 7 2 6 5 4 2 10 12 8 9 15 18 21 20 15 16 31 33 34 28 21 2 13 20 22 18 14 15 8 8 9 8 10 9
7 1 4 8 6 13 5 1 3 2 4 7 4 5 7 4 2 10 4 6 9 14 18 14 15 26 30 23 26 21 12 13 18 17 13 13 16 14 10 11 12 10 9 9
6 10 4 5 7 5 5 4 3 6 6 8 3 4 8 7 5 9 15 10 8 13 13 13 17 21 23 22 21 21 12 10 11 10 18 13 15 15 12 15 13 12 15 14
11 9 11 9 13 7 8 5 5 9 7 7 3 4 4 1 2 6 8 5 7 11 10 10 13 21 30 35 43 34 24 11 9 16 18 18 17 11 11 13 13 13 15 14
7 6 3 6 5 7 6 5 2 5 2 3 2 4 10 6 5 6 6 3 5 5 7 12 15 16 19 25 28 35 33 29 15 15 13 16 13 9 10 8 11 11 9 10
7 5 4 2 5 4 5 9 3 1 4 6 4 4 6 9 7 5 7 4 5 7 9 9 9 17 18 16 21 34 30 14 10 15 15 12 8 7 5 6 7 8 10 11
8 7 5 4 7 9 4 4 3 2 2 5 8 4 6 5 5 8 7 5 8 10 9 7 9 8 7 14 16 18 21 13 17 17 14 11 8 7 9 7 5 7 7 8
7 6 9 14 3 0 2 3 5 4 5 1 3 5 2 5 6 6 8 6 7 4 3 5 5 6 7 16 21 16 16 17 17 16 13 9 8 10 9 8 8 7 9 6
7 4 7 6 4 3 5 5 4 4 2 7 4 3 6 4 5 7 10 5 7 6 4 5 5 3 10 6 12 18 16 15 15 15 13 14 13 12 9 9 9 10 8 8
4 2 4 11 10 3 5 7 7 4 5 7 5 2 9 13 12 10 9 7 6 5 3 4 4 7 9 11 7 9 7 6 9 10 9 11 13 13 11 11 10 8 8 8
0 3 3 2 3 3 3 10 10 7 2 4 6 5 7 13 13 12 9 8 10 9 7 6 9 8 6 5 4 5 2 6 11 11 12 12 11 10 11 12 11 10 9 7
1 1 1 3 4 6 10 6 6 4 4 1 1 3 11 9 11 11 9 7 9 9 11 8 10 9 10 8 7 5 7 11 15 15 14 13 12 12 13 14 13 10 9 9
3 2 1 3 3 6 6 6 3 7 8 3 2 5 14 12 11 10 11 8 9 9 9 10 11 12 15 12 12 13 10 14 18 16 14 14 13 14 14 13 12 11 8 9
1 2 2 1 1 4 4 4 6 12 6 5 4 9 12 12 8 8 9 9 7 7 10 10 12 15 16 15 15 18 15 14 19 17 14 15 15 15 14 14 13 14 12 10
1 2 2 2 2 5 2 0 1 1 3 5 5 8 11 12 3 1 13 12 10 10 8 9 10 14 17 17 17 18 18 19 15 14 17 19 17 17 15 14 12 11 11 11
5 3 2 2 4 6 4 1 3 0 4 4 6 9 13 13 1 6 14 13 11 11 10 7 10 13 15 17 20 18 18 21 23 27 24 20 18 17 15 13 10 10 11 11
2 2 6 5 1 2 4 3 6 6 3 6 6 7 9 5 4 12 12 10 9 8 9 4 9 14 17 19 20 17 17 22 28 29 25 24 21 18 17 13 12 13 13 11
0 1 2 2 3 5 6 5 4 3 2 5 6 6 8 10 11 9 11 10 9 10 11 8 5 4 8 14 17 17 23 20 20 23 26 25 23 17 15 13 13 16 13 14
1 1 1 1 3 4 5 5 1 2 4 4 7 9 9 11 11 12 11 12 11 12 10 11 12 11 4 7 11 12 10 12 18 20 22 21 19 16 17 16 18 17 14 15
1 2 2 2 3 4 4 3 1 2 4 6 6 7 8 11 15 16 13 12 13 17 16 16 14 13 14 10 12 16 17 17 17 16 16 24 23 16 16 18 23 16 15 16
1 4 3 2 1 2 2 0 2 2 3 4 6 7 7 12 15 14 14 13 13 15 14 9 8 9 11 8 9 12 12 12 17 15 13 13 16 18 19 23 20 18 17 17
2 3 1 2 2 2 2 1 0 2 4 5 6 8 8 11 9 12 12 14 14 14 9 6 5 5 4 3 2 2 2 10 14 14 11 8 7 8 13 15 10 11 11 8
Wind_Direction
107 226 227 216 210 231 263 263 274 275 235 265 269 268 279 235 226 235 226 218 220 220 227 220 223 220 224 217 216 226 229 226 221 204 205 215 203 207 239 210 191 195 205 203
196 244 216 203 175 222 235 266 263 282 275 204 267 269 278 269 245 241 226 220 219 223 232 221 215 215 218 201 160 89 58 212 250 256 247 234 211 209 193 216 198 194 199 214
221 226 165 187 192 213 246 253 269 260 218 224 279 272 273 281 255 259 248 233 226 219 228 224 217 210 194 132 111 85 54 22 282 267 277 268 224 211 205 204 202 207 207 206
234 220 204 205 237 217 260 254 252 260 212 271 227 292 261 286 289 277 261 234 234 227 230 235 221 196 131 127 125 132 323 246 248 273 290 261 256 226 212 199 202 194 209 212
215 188 191 211 224 187 258 263 285 254 202 193 196 243 267 280 285 279 315 259 238 222 220 219 214 157 150 157 150 157 201 177 296 305 278 254 248 248 218 197 194 192 195 207
232 214 209 227 220 197 122 234 65 87 174 235 161 252 270 249 253 305 122 330 238 216 217 215 173 151 158 158 159 156 123 358 303 306 254 249 244 238 212 199 196 190 188 182
207 229 226 207 240 181 190 210 239 210 206 245 105 214 275 271 316 301 308 296 236 210 206 170 152 154 146 136 120 143 142 358 313 284 244 244 246 237 222 218 213 200 203 182
210 230 204 186 217 224 198 216 231 237 227 249 126 225 262 274 303 314 309 283 219 203 188 136 137 150 146 161 175 168 174 216 229 238 252 242 229 226 233 227 221 213 216 194
173 235 241 208 165 186 156 207 63 113 56 254 281 262 271 260 250 323 305 237 203 169 124 140 148 139 152 176 178 184 184 220 207 203 219 211 208 219 231 239 232 211 211 182
201 243 205 151 148 67 226 141 179 178 180 241 213 262 266 277 246 257 258 221 144 134 150 157 158 146 148 160 177 190 201 216 204 166 183 190 184 198 186 162 146 167 156 154
158 220 172 206 201 195 152 183 68 116 284 268 269 245 229 268 232 231 240 199 150 156 168 167 165 162 143 121 135 157 180 179 168 163 164 160 165 159 154 150 141 141 142 151
195 193 224 227 121 36 161 178 177 233 195 219 288 246 188 199 210 233 239 194 133 137 147 169 165 187 179 155 128 145 145 164 165 146 145 137 140 129 148 151 149 148 145 152
174 204 217 208 156 158 209 184 171 113 144 185 213 225 67 21 298 268 279 209 165 192 191 171 199 203 245 171 163 136 139 160 145 142 153 147 147 148 160 161 154 153 158 157
145 147 237 235 230 155 176 182 181 213 185 160 221 260 42 17 346 291 251 229 183 215 280 135 188 218 253 281 142 114 105 114 136 142 147 153 164 163 169 162 163 164 162 163
269 214 193 38 329 191 153 176 169 216 196 202 160 181 43 352 328 317 277 230 199 208 233 146 164 202 206 214 127 148 123 162 164 163 165 184 182 172 174 171 167 170 164 179
345 151 176 100 35 130 93 62 158 107 134 38 34 114 11 352 341 330 327 258 226 219 232 178 177 173 189 188 179 183 203 181 175 178 175 184 182 183 189 175 165 174 177 180
30 45 23 148 25 142 110 11 63 101 65 341 72 355 335 346 1 351 339 316 255 219 230 211 209 192 189 185 176 178 189 179 173 177 176 183 178 195 196 176 174 164 194 189
94 80 357 117 178 199 80 36 98 108 71 29 332 330 331 324 314 16 351 336 313 248 241 223 216 223 212 190 188 188 179 193 180 171 176 177 191 203 199 186 181 171 187 207
354 144 108 206 145 111 221 59 331 319 82 19 326 335 338 332 263 264 3 344 313 310 271 243 201 181 177 183 186 180 164 174 193 188 173 189 190 201 203 202 185 202 191 206
67 55 243 157 187 188 89 35 12 337 194 12 347 350 347 349 298 10 340 338 331 328 300 252 180 173 170 174 178 168 170 180 187 189 183 191 191 202 207 210 202 219 219 216
29 41 207 188 152 97 30 346 162 194 93 1 353 348 342 358 344 309 320 332 342 340 331 262 198 176 176 172 173 174 180 202 202 190 182 192 197 200 209 212 212 224 231 234
136 210 153 149 149 188 13 129 236 26 328 331 316 324 326 317 317 318 331 329 332 343 356 358 282 204 178 180 181 190 198 198 194 191 189 192 197 202 214 214 229 227 228 234
225 296 127 288 70 105 65 82 118 298 304 322 308 317 319 317 332 332 326 321 314 308 322 331 322 320 292 217 216 220 213 204 193 191 193 190 193 197 217 227 246 235 224 230
145 195 109 204 117 101 88 130 108 334 328 332 327 333 339 336 333 326 323 317 315 313 311 316 308 286 281 273 250 246 225 212 198 204 203 196 187 191 208 211 246 234 225 226
71 173 122 82 101 95 44 310 335 354 346 8 12 1 353 345 340 337 326 320 314 309 304 310 304 300 302 300 263 235 220 199 205 206 210 211 195 191 207 217 217 219 224 225
178 138 134 122 146 83 93 50 335 340 359 347 337 340 342 344 343 340 342 338 334 321 302 296 318 315 307 334 33 23 157 205 196 176 173 174 160 167 187 190 177 190 200 183